Location: ???????
(55.5931°N, 39.3286°E)
Time: 03:08:19
(UTC+00:00)

Cosmos 2333 Rocket - Pass Details

Date: 14 April 2024
Orbit: 839 x 862 km, 70.8° (Epoch: 28 May)

Event Time Altitude Azimuth Distance (km) Brightness Sun altitude
Exits shadow 00:05:02 25° 241° (WSW) 1,623 3.1 -16.7°
Maximum altitude 00:08:13 58° 312° (NW) 978 2.5 -16.4°
Drops below altitude 10° 00:13:48 10° 31° (NNE) 2,469 5.9 -15.9°
Sets 00:16:19 0° 36° (NE) 3,407 7.1 -15.6°
